Enid, OK

3:32 PM CDT on June 25, 2017 (GMT -0500)
Enid Woodring Municipal

Weather History for KWDG - January, 2013

Change the Weather History Date:

Tuesday, January 29, 2013

  Actual Average Record
Temperature  
Mean Temperature 52 °F -  
Max Temperature 66 °F 45 °F 75 °F (2011)
Min Temperature 37 °F 28 °F 8 °F (2014)
Degree Days  
Heating Degree Days 14    
Growing Degree Days 2 (Base 50)    
Moisture  
Dew Point 46 °F    
Average Humidity 84    
Maximum Humidity 94    
Minimum Humidity 76    
Precipitation  
Precipitation 0.00 in - - ()
Sea Level Pressure  
Sea Level Pressure 29.62 in    
Wind  
Wind Speed 13 mph (WNW)    
Max Wind Speed 31 mph    
Max Gust Speed 44 mph    
Visibility 9 miles    
Events Rain , Thunderstorm    
Averages and records for this station are not official NWS values.
T = Trace of Precipitation, MM = Missing Value Source: NWS Daily Summary

Daily Weather History Graph

Daily Weather History Graph

Search for Another Location

Airport or City:

Trip Planner

Search our weather history database for the weather conditions in past years. The results will help you decide how hot, cold, wet, or windy it might be!

Date:

Astronomy

Jan. 29, 2013 Rise Set
Actual Time 7:34 AM CST 5:54 PM CST
Civil Twilight 7:07 AM CST 6:21 PM CST
Nautical Twilight 6:36 AM CST 6:52 PM CST
Astronomical Twilight 6:05 AM CST 7:23 PM CST
Moon 8:45 PM CST (1/29) 8:38 AM CST (1/29)
Length of Visible Light 11h 14m
Length of Day
10h 20m
Waning Gibbous, 93% of the Moon is Illuminated
Jan 29
Waning Gibbous
Feb 3
Last Quarter
Feb 10
New
Feb 17
First Quarter
Feb 25
Full

Hourly Weather History & Observations

Time (CST) Temp. Windchill Dew Point Humidity Pressure Visibility Wind Dir Wind Speed Gust Speed Precip Events Conditions
12:15 AM 66.2 °F - 59.0 °F 78% 29.67 in 10.0 mi South 16.1 mph 23.0 mph N/A   Clear
12:35 AM 64.4 °F - 59.0 °F 83% 29.67 in 10.0 mi South 16.1 mph - N/A   Clear
12:55 AM 64.4 °F - 59.0 °F 83% 29.67 in 10.0 mi South 12.7 mph - N/A   Clear
1:15 AM 64.4 °F - 59.0 °F 83% 29.67 in 10.0 mi South 11.5 mph - N/A   Clear
1:35 AM 62.6 °F - 59.0 °F 88% 29.66 in 10.0 mi South 11.5 mph - N/A   Clear
1:55 AM 62.6 °F - 59.0 °F 88% 29.67 in 10.0 mi South 11.5 mph - N/A   Clear
2:15 AM 62.6 °F - 59.0 °F 88% 29.66 in 10.0 mi South 12.7 mph - N/A   Clear
2:35 AM 62.6 °F - 59.0 °F 88% 29.66 in 10.0 mi South 9.2 mph - N/A   Clear
2:55 AM 60.8 °F - 57.2 °F 88% 29.65 in 10.0 mi South 9.2 mph - N/A   Clear
3:15 AM 60.8 °F - 59.0 °F 94% 29.64 in 10.0 mi South 9.2 mph - N/A   Clear
3:35 AM 62.6 °F - 59.0 °F 88% 29.64 in 10.0 mi South 9.2 mph - N/A   Clear
3:55 AM 62.6 °F - 59.0 °F 88% 29.65 in 10.0 mi South 9.2 mph - N/A   Scattered Clouds
4:15 AM 62.6 °F - 59.0 °F 88% 29.64 in 10.0 mi South 9.2 mph - N/A   Mostly Cloudy
4:35 AM 62.6 °F - 59.0 °F 88% 29.63 in 10.0 mi South 9.2 mph - N/A   Mostly Cloudy
4:55 AM 62.6 °F - 59.0 °F 88% 29.62 in 10.0 mi South 6.9 mph - N/A   Overcast
6:20 AM 62.6 °F - 60.8 °F 94% 29.60 in 5.0 mi West 31.1 mph 43.7 mph N/A Rain , Thunderstorm Thunderstorms and Rain
7:50 AM 51.8 °F - 44.6 °F 76% 29.60 in 5.0 mi NNW 16.1 mph - N/A Rain Rain
8:50 AM 50.0 °F - 46.4 °F 87% 29.61 in 3.0 mi East 8.1 mph - N/A Rain Light Rain
9:50 AM 50.0 °F - 48.2 °F 94% 29.60 in 7.0 mi NNE 12.7 mph - N/A   Overcast
11:50 AM 51.8 °F - 48.2 °F 88% 29.57 in 7.0 mi NNW 16.1 mph - N/A   Overcast
12:50 PM 48.2 °F - 44.6 °F 87% 29.53 in 7.0 mi NNW 17.3 mph - N/A   Overcast
1:50 PM 46.4 °F 39.0 °F 42.8 °F 87% 29.54 in 7.0 mi NNW 19.6 mph - N/A   Overcast
2:50 PM 46.4 °F 39.5 °F - N/A% 29.52 in 7.0 mi North 17.3 mph - N/A   Overcast
3:50 PM 46.4 °F 39.2 °F 41.0 °F 81% 29.55 in 7.0 mi North 18.4 mph - N/A   Mostly Cloudy
4:50 PM 44.6 °F 36.9 °F 39.2 °F 81% 29.56 in 7.0 mi North 18.4 mph - N/A   Mostly Cloudy
5:10 PM 44.6 °F 37.8 °F 37.4 °F 76% 29.56 in 7.0 mi North 15.0 mph - N/A   Mostly Cloudy
5:50 PM 44.6 °F 37.8 °F 37.4 °F 76% 29.56 in 10.0 mi North 15.0 mph - N/A   Mostly Cloudy
6:50 PM 41.0 °F 35.2 °F 35.6 °F 81% 29.55 in 10.0 mi North 9.2 mph - N/A   Mostly Cloudy
7:50 PM 41.0 °F 34.7 °F 35.6 °F 81% 29.60 in 10.0 mi NW 10.4 mph - N/A   Overcast
8:15 PM 41.0 °F 33.9 °F 35.6 °F 81% 29.62 in 10.0 mi NNW 12.7 mph - N/A   Overcast
8:35 PM 41.0 °F 35.2 °F 33.8 °F 76% 29.62 in 10.0 mi NNW 9.2 mph 12.7 mph N/A   Mostly Cloudy
8:50 PM 41.0 °F 33.5 °F 35.6 °F 81% 29.62 in 10.0 mi NW 13.8 mph - N/A   Overcast
8:55 PM 41.0 °F 34.3 °F 33.8 °F 76% 29.62 in 10.0 mi NNW 11.5 mph - N/A   Overcast
9:15 PM 41.0 °F 35.8 °F 33.8 °F 76% 29.62 in 10.0 mi NW 8.1 mph - N/A   Overcast
9:35 PM 41.0 °F 33.5 °F 33.8 °F 76% 29.64 in 10.0 mi NW 13.8 mph 17.3 mph N/A   Overcast
9:55 PM 41.0 °F 33.9 °F 33.8 °F 76% 29.63 in 10.0 mi NW 12.7 mph 18.4 mph N/A   Overcast
10:15 PM 39.2 °F 31.6 °F 33.8 °F 81% 29.64 in 10.0 mi NW 12.7 mph - N/A   Overcast
10:35 PM 39.2 °F 33.0 °F 33.8 °F 81% 29.65 in 10.0 mi NW 9.2 mph 17.3 mph N/A   Overcast
10:55 PM 39.2 °F 30.8 °F 33.8 °F 81% 29.65 in 10.0 mi NW 15.0 mph - N/A   Overcast
11:15 PM 37.4 °F 29.3 °F 33.8 °F 87% 29.65 in 10.0 mi NW 12.7 mph 18.4 mph N/A   Overcast
11:35 PM 37.4 °F 28.2 °F 33.8 °F 87% 29.63 in 10.0 mi NW 16.1 mph - N/A   Overcast
11:55 PM 37.4 °F 28.9 °F 33.8 °F 87% 29.63 in 10.0 mi NW 13.8 mph 20.7 mph N/A   Mostly Cloudy